Weather History for KBUY - February, 2013

Change the Weather History Date:

Friday, February 22, 2013

  Actual Average Record
Temperature  
Mean Temperature 36 °F -  
Max Temperature 39 °F 58 °F 74 °F (1976)
Min Temperature 33 °F 33 °F 10 °F (1963)
Degree Days  
Heating Degree Days 29    
Moisture  
Dew Point 32 °F    
Average Humidity 88    
Maximum Humidity 96    
Minimum Humidity 62    
Precipitation  
Precipitation 0.26 in - - ()
Sea Level Pressure  
Sea Level Pressure 30.23 in    
Wind  
Wind Speed 4 mph (NE)    
Max Wind Speed 8 mph    
Max Gust Speed -    
Visibility 6 miles    
Events Rain    
Averages and records for this station are not official NWS values.
T = Trace of Precipitation, MM = Missing Value Source: NWS Daily Summary

Daily Weather History Graph

Daily Weather History Graph

Search for Another Location

Airport or City:

Trip Planner

Search our weather history database for the weather conditions in past years. The results will help you decide how hot, cold, wet, or windy it might be!

Date:

Astronomy

Feb. 22, 2013 Rise Set
Actual Time 6:56 AM EST 6:06 PM EST
Civil Twilight 6:30 AM EST 6:32 PM EST
Nautical Twilight 6:00 AM EST 7:02 PM EST
Astronomical Twilight 5:31 AM EST 7:31 PM EST
Moon 3:19 PM EST (2/22) 4:36 AM EST (2/22)
Length of Visible Light 12h 01m
Length of Day
11h 09m
Waxing Gibbous, 90% of the Moon is Illuminated
Feb 22
Waxing Gibbous
Feb 25
Full
Mar 4
Last Quarter
Mar 11
New
Mar 19
First Quarter

Hourly Weather History & Observations

Time (EST) Temp. Windchill Dew Point Humidity Pressure Visibility Wind Dir Wind Speed Gust Speed Precip Events Conditions
1:54 AM 39.0 °F 35.7 °F 27.0 °F 62% 30.30 in 8.0 mi NE 4.6 mph - 0.02 in Rain Light Rain
2:54 AM 36.0 °F - 30.0 °F 79% 30.32 in 9.0 mi Calm Calm - 0.09 in Rain Light Rain
3:54 AM 34.0 °F 28.0 °F 30.9 °F 89% 30.29 in 6.0 mi NNE 6.9 mph - 0.05 in Rain Rain
4:54 AM 33.1 °F 26.9 °F 30.0 °F 89% 30.25 in 10.0 mi East 6.9 mph - 0.03 in Rain Light Rain
5:54 AM 33.1 °F 30.0 °F 30.0 °F 89% 30.27 in 10.0 mi NNW 3.5 mph - 0.00 in Rain Light Rain
7:54 AM 33.1 °F - 30.0 °F 89% 30.31 in 10.0 mi Calm Calm - N/A   Overcast
8:54 AM 33.1 °F 30.0 °F 30.0 °F 89% 30.32 in 10.0 mi East 3.5 mph - 0.01 in   Overcast
9:02 AM 33.8 °F 29.6 °F 30.2 °F 87% 30.31 in 10.0 mi ENE 4.6 mph - 0.00 in Rain Light Rain
9:13 AM 33.8 °F 30.8 °F 30.2 °F 87% 30.30 in 8.0 mi NE 3.5 mph - 0.00 in Rain Light Rain
9:24 AM 33.8 °F 27.7 °F 30.2 °F 87% 30.29 in 10.0 mi NE 6.9 mph - 0.00 in   Overcast
9:54 AM 34.0 °F 29.8 °F 28.9 °F 82% 30.30 in 10.0 mi ENE 4.6 mph - 0.00 in   Overcast
10:54 AM 36.0 °F - 30.9 °F 82% 30.29 in 10.0 mi Calm Calm - N/A   Overcast
11:54 AM 36.0 °F 33.3 °F 30.9 °F 82% 30.29 in 10.0 mi Variable 3.5 mph - N/A   Overcast
12:54 PM 36.0 °F 32.1 °F 30.9 °F 82% 30.27 in 10.0 mi NNE 4.6 mph - 0.00 in   Overcast
1:18 PM 37.4 °F 33.8 °F 30.2 °F 75% 30.23 in 10.0 mi NE 4.6 mph - N/A   Overcast
1:28 PM 37.4 °F 32.8 °F 30.2 °F 75% 30.23 in 10.0 mi ENE 5.8 mph - N/A   Overcast
1:54 PM 37.0 °F 33.3 °F 32.0 °F 82% 30.22 in 10.0 mi ENE 4.6 mph - N/A   Overcast
2:33 PM 37.4 °F 31.4 °F 30.2 °F 75% 30.21 in 10.0 mi NNE 8.1 mph - N/A   Overcast
2:54 PM 37.0 °F 32.4 °F 30.9 °F 79% 30.22 in 9.0 mi North 5.8 mph - 0.00 in Rain Light Rain
3:54 PM 36.0 °F 32.1 °F 32.0 °F 86% 30.22 in 6.0 mi NNE 4.6 mph - 0.00 in Rain Light Rain
4:46 PM 35.6 °F 32.8 °F 32.0 °F 87% 30.20 in 4.0 mi ENE 3.5 mph - 0.02 in Rain Light Rain
4:54 PM 35.1 °F - 33.1 °F 92% 30.23 in 4.0 mi Calm Calm - 0.02 in Rain Light Rain
5:30 PM 35.6 °F 32.8 °F 33.8 °F 93% 30.21 in 2.5 mi NE 3.5 mph - 0.00 in   Overcast
5:54 PM 35.1 °F 32.2 °F 33.1 °F 92% 30.22 in 3.0 mi NE 3.5 mph - 0.00 in Rain Light Rain
6:22 PM 35.6 °F 32.8 °F 33.8 °F 93% 30.18 in 5.0 mi ENE 3.5 mph - 0.01 in   Overcast
6:54 PM 35.1 °F 32.2 °F 33.1 °F 92% 30.20 in 5.0 mi NE 3.5 mph - 0.01 in   Overcast
7:29 PM 35.6 °F 32.8 °F 33.8 °F 93% 30.19 in 3.0 mi NE 3.5 mph - N/A   Overcast
7:54 PM 35.1 °F 30.1 °F 34.0 °F 96% 30.21 in 2.5 mi North 5.8 mph - 0.00 in Rain Light Rain
8:09 PM 35.6 °F 32.8 °F 33.8 °F 93% 30.19 in 3.0 mi NE 3.5 mph - 0.01 in Rain Light Rain
8:18 PM 35.6 °F 30.7 °F 33.8 °F 93% 30.19 in 3.0 mi NNE 5.8 mph - 0.01 in Rain Light Rain
8:54 PM 35.1 °F 30.1 °F 34.0 °F 96% 30.19 in 3.0 mi NNE 5.8 mph - 0.02 in   Overcast
9:10 PM 35.6 °F 32.8 °F 33.8 °F 93% 30.17 in 2.5 mi ENE 3.5 mph - 0.00 in   Overcast
9:20 PM 35.6 °F 32.8 °F 33.8 °F 93% 30.18 in 3.0 mi NE 3.5 mph - 0.00 in   Overcast
9:54 PM 35.1 °F 30.1 °F 34.0 °F 96% 30.21 in 3.0 mi North 5.8 mph - 0.00 in   Overcast
10:05 PM 35.6 °F 31.7 °F 33.8 °F 93% 30.19 in 2.5 mi North 4.6 mph - 0.00 in   Overcast
10:51 PM 35.6 °F - 33.8 °F 93% 30.16 in 3.0 mi Calm Calm - 0.01 in   Overcast
10:54 PM 35.1 °F - 34.0 °F 96% 30.17 in 3.0 mi Calm Calm - 0.01 in   Overcast
11:37 PM 35.6 °F 31.7 °F 33.8 °F 93% 30.13 in 2.5 mi NE 4.6 mph - N/A   Overcast
11:54 PM 35.1 °F 31.0 °F 34.0 °F 96% 30.13 in 2.5 mi NE 4.6 mph - N/A   Overcast